weather.gov     
National Weather Service

Regional Weather Roundup
NWS Homepage
This page is being discontinued on March 12, 2014.
The same data is available at this site. Please update your bookmarks.
Thank you, and we apologize for the inconvenience.
Please send an email to SR-SRH.Webmaster@noaa.gov with any concerns.


Current Version
Previous Version:    01  02  03  04  05  06  07  08  09  10  11  12  13  14  15  16  17  18  19  20  21  22  23  24  25  26  
[Printable]
563
ASUS44 KLCH 232210
RWRLCH
RWRLCH
REGIONAL WEATHER ROUNDUP
NATIONAL WEATHER SERVICE LAKE CHARLES LA
500 PM CDT WED JUL 23 2014

Note: "fair" indicates few or no clouds below 12,000 feet with no
significant weather and/or obstructions to visibility.


ACROSS SOUTHEAST TEXAS

CITY           SKY/WX    TMP DP  RH WIND       PRES   REMARKS
BEAUMONT       MOSUNNY   90  72  55 S6        29.95F
BEAUMONT CITY    N/A     91  71  51 CALM      29.96F
ORANGE         CLEAR     91  70  50 CALM      29.96F
JASPER         SUNNY     89  71  54 CALM      29.98F
$$

ACROSS CENTRAL LOUISIANA

CITY           SKY/WX    TMP DP  RH WIND       PRES   REMARKS
LEESVILLE      PTSUNNY   87  72  60 SE8       29.95F
FULLERTON        N/A     84  76  76 CALM      29.94F
ALEXANDRIA INT SUNNY     87  73  62 SW3       29.93F
ESLER FIELD    MOSUNNY   92  72  51 SE6       29.94F
DERIDDER         N/A     89  70  53 CALM      29.96F
OAKDALE        MOCLDY    89  75  63 E3        29.95F
OPELOUSAS        N/A     88  71  56 CALM      29.95F
$$

ACROSS SOUTHWEST AND SOUTH CENTRAL LOUISIANA

CITY           SKY/WX    TMP DP  RH WIND       PRES   REMARKS
SULPHUR        MOCLDY    88  74  63 SW8       29.96F
LAKE CHARLES   MOSUNNY   90  69  50 E3        29.95F
CHENNAULT INT  MOSUNNY   91  70  49 N5        29.96F
CAMERON PHI    CLEAR     88  75  66 S9        29.96F
DEQUINCY       MOCLDY    89  72  56 CALM      29.95F
JENNINGS         N/A     89  72  57 E6        29.95F
LAFAYETTE      MOSUNNY   90  70  51 NE7       29.95F
NEW IBERIA     CLOUDY    86  75  69 S8        29.96F
ABBEVILLE      MOCLDY    85  72  65 SE8       29.95F
PATTERSON      PTSUNNY   82  73  74 SE9       30.01F
SALT POINT       N/A     87  76  69 SE8       29.96F
$$

SELECTED SITES ACROSS THE REGION

CITY           SKY/WX    TMP DP  RH WIND       PRES   REMARKS
HOUSTON BUSH   MOSUNNY   93  69  45 VRB7      29.96F
HOUSTON HOBBY  MOSUNNY   90  75  61 S8        29.96F HX 100
GALVESTON      SUNNY     89  72  56 VRB5      29.98F
COLLEGE STAT   PTSUNNY   92  69  47 NE5       29.97F
CONROE         SUNNY     91  70  49 VRB3      29.97F
HUNTSVILLE     MOSUNNY   92  67  43 VRB3      29.98F
LUFKIN         MOSUNNY   94  70  45 SE6       29.97F HX 100
SHREVEPORT     PTSUNNY   92  69  47 W9        29.97S
MONROE         PTSUNNY   91  71  51 CALM      29.96S
NATCHEZ MS     MOSUNNY   88  73  62 E3        29.97F
BATON ROUGE    MOSUNNY   86  72  62 E8        29.96F
N.O. INTL ARPT PTSUNNY   84  74  71 S7        29.98F
SLIDELL        PTSUNNY   83  72  69 S8        29.97F
$$

MARINE REPORTS

STATION/POSITION TIME  TEMP    WIND        PRES    VSBY  WAVE
                       AIR SEA DIR/SP/G                  HT/PER
                 (UTC) (F)     (DEG/KT/KT) (MB)    (MI)  (FT/S)
BUOY 30 S HIGH I 2200   86 90  190/  4/  6 1015.1
SEA RIM ST PARK  2200   86     200/  6/  8 1015.0F
PORT ARTHUR      2200      87  220/  2/  2 1014.5F
SABINE PASS N    2200   85 86  200/  7/ 11 1014.9F
TEXAS POINT      2200   86 87  180/  8/ 11 1014.9F
CALCASIEU PASS   2200   86 90  200/  8/  9 1015.7F
LK CHARLES BEACH 2200   89 81              1015.0F
MARSH ISLAND     2100   85      60/  1/  3   N/A
FRESH WATER LOCK 2200   83 89  220/  6/  9 1014.7S
AMERADA PASS     2200   81 86  120/  5/  8 1015.0F
$$




U.S. Dept. of Commerce
NOAA National Weather Service
1325 East West Highway
Silver Spring, MD 20910
E-mail: w-nws.webmaster@noaa.gov
Page last modified: May 16, 2007
NATIONAL WEATHER SERVICE: for Safety, for Work, for Fun - FOR LIFE